Retour au catalogue

NOAA 16 DEB

ActifSSO
NORAD 41492·DEBRIS·🇺🇸 United States

Lancé Sep 21, 2000 depuis Vandenberg Space Force Base

Loading…

Prochains Passages (prochaines 24 heures)

TLE

PériméSource: Space-Track

Époque: Aug 31, 2026, 13:42 UTC

1 41492U 00055LQ  26243.57145665  .00004460  00000-0  25067-2 0  9992
2 41492  98.8810 177.1860 0103322 359.5332   0.5725 14.08309859532867

Suivez NOAA 16 DEB en temps réel avec AllMySat

Download on the App Store